Location: Byszew
(52.1813°N, 19.2693°E)
Time: 23:56:38
(UTC+00:00)

Cosmos 2123 Rocket - Visible Passes

Search period start: 13 June 2021 00:00
Search period end: 23 June 2021 00:00
Orbit: 962 x 991 km, 82.9° (Epoch: 13 June)

Date Brightness Start Highest point End Pass type
(mag) Time Alt. Az. Time Alt. Az. Time Alt. Az.
13 Jun 4.7 20:18:30 10° SSE 20:24:13 39° E 20:30:00 10° NNE visible
13 Jun 4.9 22:03:32 10° SW 22:09:34 46° WNW 22:15:39 10° N visible
13 Jun 6.5 23:55:05 10° WNW 23:56:49 11° NW 23:58:33 10° NNW visible
14 Jun 4.2 20:43:39 10° S 20:49:44 63° E 20:56:00 10° NNE visible
14 Jun 5.6 22:30:14 10° SW 22:35:39 29° WNW 22:41:08 10° N visible
15 Jun 4.1 21:09:09 10° SSW 21:15:26 82° W 21:21:50 10° N visible
15 Jun 6.2 22:57:33 10° W 23:01:56 19° WNW 23:06:22 10° NNW visible
16 Jun 4.8 19:50:32 10° SSE 19:56:06 35° E 20:01:43 10° NNE visible
16 Jun 4.7 21:35:12 10° SSW 21:41:19 51° WNW 21:47:30 10° N visible
16 Jun 6.5 23:25:54 10° WNW 23:28:25 12° NW 23:30:57 10° NNW visible
17 Jun 4.3 20:15:28 10° SSE 20:21:35 56° E 20:27:46 10° NNE visible
17 Jun 5.5 22:01:46 10° SW 22:07:22 33° WNW 22:13:01 10° N visible
18 Jun 4.1 20:40:56 10° S 20:47:14 90° ESE 20:53:38 10° N visible
18 Jun 6.1 22:28:55 10° WSW 22:33:36 21° WNW 22:38:19 10° N visible
19 Jun 4.6 21:06:53 10° SSW 21:13:04 57° WNW 21:19:21 10° N visible
19 Jun 6.5 22:56:56 10° W 23:00:03 14° NW 23:03:09 10° NNW visible
20 Jun 4.4 19:47:24 10° SSE 19:53:26 50° E 19:59:32 10° NNE visible
20 Jun 5.4 21:33:20 10° SW 21:39:05 36° WNW 21:44:55 10° N visible
21 Jun 4.1 20:12:45 10° S 20:19:04 81° E 20:25:26 10° NNE visible
21 Jun 6.1 22:00:21 10° WSW 22:05:17 23° WNW 22:10:16 10° N visible
22 Jun 4.5 20:38:36 10° SSW 20:44:51 64° WNW 20:51:11 10° N visible
22 Jun 6.5 22:28:07 10° W 22:31:41 15° NW 22:35:15 10° NNW visible
